Hourly Weather Chabany

Today, 13 June, Sunday

Time Temperature Precipitation Wind Pressure Humidity
00:00 +15°C° 0.1 mm 2 mps 736 mmHg 94%
01:00 +14°C° 0.1 mm 2 mps 736 mmHg 96%
02:00 +14°C° 0 mm 2 mps 736 mmHg 97%
03:00 +14°C° 0.6 mm 2 mps 736 mmHg 97%
04:00 +12°C° 0.6 mm 3 mps 736 mmHg 97%
05:00 +12°C° 0.6 mm 3 mps 736 mmHg 97%
06:00 +12°C° 0.4 mm 3 mps 737 mmHg 97%
07:00 +12°C° 0.4 mm 3 mps 737 mmHg 97%
08:00 +13°C° 0 mm 2 mps 737 mmHg 96%
09:00 +12°C° 0.6 mm 3 mps 737 mmHg 96%
10:00 +12°C° 0.6 mm 3 mps 738 mmHg 95%
11:00 +12°C° 0.6 mm 3 mps 738 mmHg 94%
12:00 +13°C° 0 mm 3 mps 738 mmHg 93%
13:00 +13°C° 0 mm 3 mps 739 mmHg 91%
14:00 +13°C° 0 mm 3 mps 739 mmHg 90%
15:00 +14°C° 0 mm 3 mps 739 mmHg 89%
16:00 +14°C° 0 mm 3 mps 740 mmHg 87%
17:00 +14°C° 0 mm 3 mps 740 mmHg 86%
18:00 +14°C° 0.1 mm 3 mps 740 mmHg 87%
19:00 +14°C° 0.1 mm 3 mps 740 mmHg 87%
20:00 +14°C° 0.1 mm 3 mps 741 mmHg 88%
21:00 +13°C° 0 mm 3 mps 741 mmHg 89%
22:00 +13°C° 0 mm 4 mps 742 mmHg 89%
23:00 +13°C° 0 mm 4 mps 742 mmHg 90%

Tomorrow, 14 June, Monday

Time Temperature Precipitation Wind Pressure Humidity
00:00 +13°C° 0 mm 5 mps 743 mmHg 90%
01:00 +13°C° 0 mm 5 mps 743 mmHg 90%
02:00 +13°C° 0 mm 6 mps 744 mmHg 90%
03:00 +12°C° 0 mm 5 mps 744 mmHg 90%
04:00 +12°C° 0 mm 5 mps 744 mmHg 90%
05:00 +12°C° 0 mm 4 mps 745 mmHg 90%
06:00 +12°C° 0 mm 5 mps 745 mmHg 86%
07:00 +13°C° 0 mm 5 mps 746 mmHg 82%
08:00 +14°C° 0 mm 5 mps 746 mmHg 78%
09:00 +16°C° 0 mm 5 mps 746 mmHg 73%
10:00 +18°C° 0 mm 4 mps 747 mmHg 67%
11:00 +20°C° 0 mm 4 mps 747 mmHg 61%
12:00 +21°C° 0 mm 4 mps 747 mmHg 60%
13:00 +21°C° 0 mm 3 mps 747 mmHg 59%
14:00 +22°C° 0 mm 3 mps 747 mmHg 57%
15:00 +23°C° 0 mm 2 mps 747 mmHg 60%
16:00 +23°C° 0 mm 2 mps 747 mmHg 63%
17:00 +23°C° 0 mm 2 mps 747 mmHg 67%
18:00 +21°C° 0 mm 2 mps 746 mmHg 70%
19:00 +20°C° 0 mm 2 mps 746 mmHg 73%
20:00 +19°C° 0 mm 2 mps 746 mmHg 76%
21:00 +18°C° 0 mm 2 mps 746 mmHg 75%
22:00 +18°C° 0 mm 2 mps 746 mmHg 74%
23:00 +17°C° 0 mm 2 mps 746 mmHg 73%

Day after tomorrow, 15 June, Tuesday

Time Temperature Precipitation Wind Pressure Humidity
00:00 +17°C° 0 mm 2 mps 746 mmHg 73%
01:00 +16°C° 0 mm 2 mps 746 mmHg 72%
02:00 +16°C° 0 mm 2 mps 746 mmHg 72%
03:00 +15°C° 0 mm 2 mps 746 mmHg 73%
04:00 +15°C° 0 mm 2 mps 746 mmHg 74%
05:00 +15°C° 0 mm 2 mps 746 mmHg 74%
06:00 +15°C° 0 mm 2 mps 746 mmHg 73%
07:00 +16°C° 0 mm 2 mps 746 mmHg 72%
08:00 +16°C° 0 mm 2 mps 746 mmHg 71%
09:00 +18°C° 0 mm 3 mps 746 mmHg 65%
10:00 +19°C° 0 mm 3 mps 746 mmHg 59%
11:00 +21°C° 0 mm 3 mps 746 mmHg 53%
12:00 +21°C° 0 mm 3 mps 745 mmHg 53%
13:00 +22°C° 0 mm 4 mps 745 mmHg 54%
14:00 +22°C° 0 mm 4 mps 745 mmHg 55%
15:00 +22°C° 0.1 mm 4 mps 745 mmHg 60%
16:00 +21°C° 0.1 mm 3 mps 745 mmHg 65%
17:00 +21°C° 0.1 mm 3 mps 744 mmHg 69%
18:00 +20°C° 0.4 mm 3 mps 744 mmHg 77%
19:00 +18°C° 0.4 mm 3 mps 744 mmHg 84%
20:00 +17°C° 0.4 mm 3 mps 744 mmHg 92%
21:00 +16°C° 0.1 mm 3 mps 745 mmHg 93%
22:00 +16°C° 0.1 mm 3 mps 745 mmHg 95%
23:00 +15°C° 0.1 mm 2 mps 745 mmHg 97%

16 June, Wednesday

Time Temperature Precipitation Wind Pressure Humidity
00:00 +14°C° 0 mm 2 mps 745 mmHg 97%
01:00 +12°C° 0 mm 3 mps 746 mmHg 97%
02:00 +11°C° 0 mm 3 mps 746 mmHg 97%
03:00 +11°C° 0 mm 3 mps 746 mmHg 96%
04:00 +10°C° 0 mm 2 mps 747 mmHg 95%
05:00 +10°C° 0 mm 2 mps 747 mmHg 94%
06:00 +11°C° 0 mm 3 mps 747 mmHg 87%
07:00 +13°C° 0 mm 3 mps 748 mmHg 80%
08:00 +14°C° 0 mm 3 mps 748 mmHg 74%
09:00 +17°C° 0 mm 3 mps 748 mmHg 67%
10:00 +18°C° 0 mm 3 mps 749 mmHg 61%
11:00 +19°C° 0 mm 3 mps 749 mmHg 55%
12:00 +20°C° 0 mm 3 mps 749 mmHg 52%
13:00 +21°C° 0 mm 3 mps 749 mmHg 50%
14:00 +22°C° 0 mm 3 mps 749 mmHg 47%
15:00 +22°C° 0 mm 3 mps 749 mmHg 49%
16:00 +22°C° 0 mm 3 mps 749 mmHg 51%
17:00 +22°C° 0 mm 3 mps 749 mmHg 53%
18:00 +20°C° 0 mm 3 mps 749 mmHg 59%
19:00 +19°C° 0 mm 2 mps 749 mmHg 66%
20:00 +17°C° 0 mm 2 mps 749 mmHg 73%
21:00 +16°C° 0 mm 2 mps 750 mmHg 74%
22:00 +15°C° 0 mm 2 mps 750 mmHg 75%
23:00 +13°C° 0 mm 2 mps 750 mmHg 76%

17 June, Thursday

Time Temperature Precipitation Wind Pressure Humidity
00:00 +13°C° 0 mm 2 mps 751 mmHg 76%
01:00 +12°C° 0 mm 2 mps 751 mmHg 76%
02:00 +12°C° 0 mm 2 mps 752 mmHg 76%
03:00 +12°C° 0 mm 2 mps 752 mmHg 77%
04:00 +12°C° 0 mm 2 mps 752 mmHg 77%
05:00 +12°C° 0 mm 2 mps 752 mmHg 77%
06:00 +14°C° 0 mm 2 mps 752 mmHg 71%
07:00 +16°C° 0 mm 2 mps 753 mmHg 64%
08:00 +19°C° 0 mm 2 mps 753 mmHg 58%
09:00 +20°C° 0 mm 2 mps 753 mmHg 54%
10:00 +21°C° 0 mm 2 mps 753 mmHg 50%
11:00 +24°C° 0 mm 2 mps 753 mmHg 46%
12:00 +24°C° 0 mm 2 mps 753 mmHg 45%
13:00 +25°C° 0 mm 2 mps 753 mmHg 43%
14:00 +25°C° 0 mm 2 mps 753 mmHg 42%
15:00 +25°C° 0 mm 2 mps 753 mmHg 45%
16:00 +25°C° 0 mm 2 mps 753 mmHg 48%
17:00 +25°C° 0 mm 2 mps 753 mmHg 51%
18:00 +23°C° 0 mm 2 mps 753 mmHg 58%
19:00 +20°C° 0 mm 2 mps 753 mmHg 66%
20:00 +19°C° 0 mm 2 mps 753 mmHg 73%
21:00 +17°C° 0 mm 2 mps 753 mmHg 75%
22:00 +16°C° 0 mm 2 mps 753 mmHg 76%
23:00 +15°C° 0 mm 1 mps 753 mmHg 78%

18 June, Friday

Time Temperature Precipitation Wind Pressure Humidity
00:00 +15°C° 0 mm 1 mps 753 mmHg 80%
01:00 +14°C° 0 mm 1 mps 754 mmHg 81%
02:00 +14°C° 0 mm 1 mps 754 mmHg 83%
03:00 +14°C° 0 mm 1 mps 754 mmHg 83%
04:00 +14°C° 0 mm 2 mps 754 mmHg 83%
05:00 +14°C° 0 mm 2 mps 754 mmHg 83%
06:00 +16°C° 0 mm 2 mps 754 mmHg 76%
07:00 +18°C° 0 mm 2 mps 754 mmHg 69%
08:00 +20°C° 0 mm 3 mps 754 mmHg 62%
09:00 +21°C° 0 mm 3 mps 754 mmHg 58%
10:00 +24°C° 0 mm 3 mps 754 mmHg 53%
11:00 +25°C° 0 mm 3 mps 754 mmHg 49%
12:00 +26°C° 0 mm 3 mps 754 mmHg 48%
13:00 +26°C° 0 mm 3 mps 754 mmHg 47%
14:00 +27°C° 0 mm 3 mps 754 mmHg 46%
15:00 +27°C° 0 mm 3 mps 753 mmHg 50%
16:00 +26°C° 0 mm 3 mps 753 mmHg 53%
17:00 +26°C° 0 mm 3 mps 753 mmHg 57%
18:00 +24°C° 0 mm 3 mps 753 mmHg 65%
19:00 +22°C° 0 mm 3 mps 753 mmHg 72%
20:00 +20°C° 0 mm 2 mps 753 mmHg 80%
21:00 +19°C° 0 mm 2 mps 753 mmHg 83%
22:00 +18°C° 0 mm 2 mps 753 mmHg 86%
23:00 +17°C° 0 mm 2 mps 753 mmHg 90%
Show more

We Need Your Consent

Meteoprog and our Service Providers may store and access personal data such as cookies, device identifiers or other similar technologies on your device and process such data to personalise content and ads, as well as provide social media features and to analyse the traffic.

  • Store and/or access information on your device

    Cookies, device identifiers or other information can be stored or accessed on your device for the purposes indicated above.

  • Personalised ads and content, ad and content measurement, audience insights, and products development

    Ads and content can be personalised based on a profile. More data can be added to better personalise ads and content. Ad and content performance can be measured. Insights about the audience who saw the ads and content can be derived. Such data can be used to develop or improve user’s experience, systems and software.

By clicking ‘I Agree’ you will allow the use of indicated cookies, device identifiers, web beacons or other similar technologies. Your settings can be changed in the browser on your device.

For certain purposes, legitimate interests may be relied on, rather than consent. You can read more about this in our Privacy and Cookie Policy.